Location: Newark
(45.4426°N, 12.3253°E)
Time: 03:53:56
(UTC+00:00)

ISS - Visible Passes

Search period start: 18 October 2019 00:00
Search period end: 28 October 2019 00:00
Orbit: 411 x 421 km, 51.6° (Epoch: 17 October)

Date Brightness Start Highest point End Pass type
(mag) Time Alt. Az. Time Alt. Az. Time Alt. Az.
22 Oct -0.2 04:51:46 10° SE 04:52:20 10° SE 04:52:54 10° ESE visible
24 Oct -1.5 04:48:42 10° SSW 04:51:31 25° SE 04:54:23 10° E visible
25 Oct -0.9 04:00:59 10° S 04:03:08 16° SE 04:05:16 10° E visible
26 Oct -3.3 04:47:35 10° SW 04:50:55 62° SE 04:54:15 10° ENE visible
27 Oct -2.5 04:00:51 23° SSW 04:02:24 38° SE 04:05:33 10° ENE visible
